Flag for U.S.A. Weather past 2 weeks in Wichita, Kansas, U.S.A.

33 °F

Drizzle. Low clouds.

Feels Like: 26 °F
Forecast: 33 / 36 °F
Wind: 8 mph from North

Location: Wichita Mid-Continent Airport

Current Time: Nov 29, 2015 at 5:19:06 AM

Latest Report: Nov 29, 2015 at 4:53 AM

Visibility: 9 mi

Pressure: 30.28 "Hg

Humidity: 88%

Dew point: 30 °F

Location of WichitaLocation

Historic Weather in Wichita — Graph


Wichita temperature yesterday

Maximum temperature yesterday: 33 °F (at 10:53 PM)
Minimum temperature yesterday: 28 °F (at 12:53 AM)
Average temperature yesterday: 30 °F

Past Weeks' High & Low Weather Summary

High68 °F (Nov 25, 3:53 PM)97% (Nov 16, 7:53 AM)30.49 "Hg (Nov 16, 7:53 AM)
Low24 °F (Nov 22, 12:53 AM)17% (Nov 19, 2:53 PM)29.33 "Hg (Nov 17, 1:53 PM)
Average46 °F68%30.03 "Hg
* Reported Nov 14 3:53 AM — Nov 29 3:53 AM, Wichita, Weather by CustomWeather, © 2015

Note: Actual official high and low records may vary slightly from our data, if they occured in-between our weather recording intervals... More about our weather records


Wichita weather history for previous 24 hours

Time TempWeatherWind HumidityBarometerVisibility
3:53 AM
Sun, Nov 29
33 °FLight rain. Mostly cloudy.10 mph88%30.28 "Hg10 mi
2:53 AM33 °FFog.9 mph92%30.29 "Hg5 mi
1:53 AM33 °FMostly cloudy.6 mph92%30.30 "Hg9 mi
12:53 AM33 °FLight rain. Fog.10 mph88%30.32 "Hg6 mi
11:53 PM
Sat, Nov 28
33 °FLight rain. Mostly cloudy.6 mph88%30.34 "Hg7 mi
10:53 PM33 °FRain. Fog.8 mph88%30.34 "Hg4 mi
9:53 PM32 °FLight freezing rain. Ice fog.9 mph92%30.35 "Hg5 mi
8:53 PM32 °FLight freezing rain. Low clouds.9 mph88%30.34 "Hg9 mi
7:53 PM32 °FLight freezing rain. Low clouds.10 mph88%30.33 "Hg10 mi
6:53 PM32 °FLight freezing rain. Ice fog.9 mph88%30.33 "Hg5 mi
5:53 PM32 °FLow clouds.9 mph88%30.33 "Hg10 mi
4:53 PM31 °FLow clouds.9 mph89%30.33 "Hg10 mi
3:53 PM31 °FLight freezing rain. Ice fog.9 mph89%30.33 "Hg6 mi
2:53 PM31 °FLight freezing rain. Ice fog.9 mph89%30.32 "Hg2 mi
1:53 PM30 °FLight freezing rain. Ice fog.10 mph89%30.35 "Hg2 mi
12:53 PM30 °FLight freezing rain. Ice fog.10 mph92%30.37 "Hg1 mi
12:00 PM30 °FLight freezing rain. Ice fog.10 mph92%30.34 "Hg2 mi
10:53 AM30 °FLight freezing rain. Ice fog.12 mph89%30.39 "Hg2 mi
9:53 AM30 °FLight freezing rain. Ice fog.10 mph89%30.41 "Hg4 mi
8:53 AM29 °FIce fog.10 mph89%30.39 "Hg5 mi
7:53 AM29 °FLight freezing rain. Ice fog.12 mph89%30.38 "Hg2 mi
6:53 AM29 °FLight freezing rain. Ice fog.13 mph89%30.37 "Hg3 mi
5:53 AM30 °FLight freezing rain. Mostly cloudy.13 mph85%30.37 "Hg9 mi
Weather by CustomWeather, © 2015

See weather overviewHow to use our weather pages